Location: Ku?niki
(51.4449°N, 17.8974°E)
Time: 04:18:47
(UTC+00:00)

YUBILEINY - Visible Passes

Search period start: 26 June 2022 00:00
Search period end: 06 July 2022 00:00
Orbit: 1479 x 1507 km, 82.5° (Epoch: 25 June)

Date Brightness Start Highest point End Pass type
(mag) Time Alt. Az. Time Alt. Az. Time Alt. Az.
26 Jun ? 00:18:54 10° NNE 00:21:37 11° NNE 00:24:21 10° NE visible
27 Jun ? 01:24:28 10° N 01:31:22 24° NE 01:38:11 10° ESE visible
28 Jun ? 00:35:29 10° N 00:40:26 16° NE 00:45:21 10° ENE visible
28 Jun ? 23:48:24 10° NNE 23:49:04 10° NNE 23:49:44 10° NE visible
29 Jun ? 01:41:52 10° N 01:49:40 33° ENE 01:57:22 10° ESE visible
30 Jun ? 00:52:38 10° N 00:59:02 21° NE 01:05:22 10° E visible
30 Jun ? 19:59:45 10° NW 20:02:19 11° NNW 20:04:52 10° NNW visible
01 Jul ? 00:03:49 10° N 00:07:58 14° NE 00:12:05 10° ENE visible
02 Jul ? 01:09:58 10° N 01:17:25 29° ENE 01:24:46 10° ESE visible
03 Jul ? 00:20:49 10° N 00:26:39 19° NE 00:32:27 10° E visible
03 Jul ? 23:32:19 10° NNE 23:35:28 12° NE 23:38:36 10° ENE visible
04 Jul ? 01:27:24 10° N 01:35:36 39° ENE 01:43:39 10° SE visible
05 Jul ? 00:38:05 10° N 00:45:07 25° NE 00:52:05 10° ESE visible
05 Jul ? 23:49:03 10° N 23:54:15 16° NE 23:59:23 10° E visible
